Location: Mascot Post Office (historical)
(40.2645°N, 99.5462°W)
Time: 17:19:24
(UTC+00:00)

Meteor 1-18 Rocket - Pass Details

Date: 14 July 2020
Orbit: 837 x 909 km, 81.2° (Epoch: 05 August)

Event Time Altitude Azimuth Distance (km) Brightness Sun altitude
Rises 07:53:35 0° 350° (N) 3,507 8.4 -26.1°
Reaches altitude 10° 07:56:03 10° 350° (N) 2,553 7.5 -25.9°
Maximum altitude 08:01:52 86° 263° (W) 879 4.1 -25.6°
Enters shadow 08:02:40 68° 182° (S) 936 4.1 -25.5°
